Location: Les Thiberg�res
(47.8554°N, 1.0978°W)
Time: 23:28:23
(UTC+00:00)

Cosmos 1470 Rocket - Pass Details

Date: 17 February 2020
Orbit: 604 x 633 km, 82.5° (Epoch: 05 April)

Event Time Altitude Azimuth Distance (km) Brightness Sun altitude
Rises 06:23:20 0° 353° (N) 2,920 6.9 -8.2°
Reaches altitude 10° 06:25:36 10° 358° (N) 2,013 6.1 -7.8°
Maximum altitude 06:30:01 58° 78° (ENE) 736 4.3 -7.1°
Drops below altitude 10° 06:34:25 10° 158° (SSE) 2,010 6.7 -6.3°
Sets 06:36:40 0° 162° (SSE) 2,915 7.5 -6.0°
